Regional Weather Roundup
Issued by NWS Mt. Holly, NJ

Home | Current Version | Previous Version | Text Only | Print | Product List | Glossary On
Versions: 1 2 3 4 5 6 7 8 9 10 11 12 13 14 15 16 17 18 19 20 21 22 23 24 25 26 27 28 29 30 31 32 33 34 35 36 37 38 39 40 41 42 43 44 45 46 47 48 49 50
602
ASUS41 KPHI 101312
RWRPHI

REGIONAL WEATHER ROUNDUP
NATIONAL WEATHER SERVICE MOUNT HOLLY NJ
800 AM EST WED FEB 10 2016

NOTE:  "FAIR" INDICATES FEW OR NO CLOUDS BELOW 12,000 FEET WITH NO
SIGNIFICANT WEATHER AND/OR OBSTRUCTIONS TO VISIBILITY.

 * = STATION DOES NOT REPORT PRECIPITATION (E.G. RAIN, SNOW, ETC.)
        OR FOG.

NJZ015>026-101400-
SOUTHERN NEW JERSEY

CITY           SKY/WX    TMP DP  RH WIND       PRES   REMARKS
POMONA         LGT SNOW  30  28  92 W15       29.68R FOG     WCI  19
WILDWOOD*      CLOUDY    30  27  86 W15       29.73R WCI  19
MILLVILLE      LGT SNOW  30  27  88 W15       29.71R VSB 1   WCI  19
WRIGHTSTOWN    LGT SNOW  30  30 100 W8        29.64R FOG     WCI  23
MOUNT HOLLY    SNOW      30  28  92 W8        29.68R VSB 1/2 WCI  22
TRENTON        LGT SNOW  30  27  88 W6        29.65R VSB 3/4 WCI  24

$$
NJZ001>014-101400-
NORTHERN NEW JERSEY

CITY           SKY/WX    TMP DP  RH WIND       PRES   REMARKS
SUSSEX         CLOUDY    30  27  88 SW5       29.59R FOG     WCI  25
ANDOVER*         N/A     30  27  88 VRB3      29.60R
MORRISTOWN     LGT SNOW  32  30  93 MISG      29.62R
NEWARK         LGT SNOW  32  30  92 W9        29.62R FOG     WCI  24
TETERBORO      CLOUDY    34  28  80 W6        29.61R HAZE    WCI  29
CALDWELL       LGT SNOW  32  29  88 SW5       29.62R FOG     WCI  27
SOMERVILLE     CLOUDY    32  28  85 W5        29.62R FOG     WCI  27
ALLAIRE*       CLOUDY    32  23  69 W12       29.63R WCI  23
TOMS RIVER*    CLOUDY    30  28  93 W9G17     29.66R WCI  22

$$
PAZ043-044-047-054-055-060>062-066>071-101400-
EASTERN PENNSYLVANIA

CITY           SKY/WX    TMP DP  RH WIND       PRES   REMARKS
PHILADELPHIA   LGT SNOW  32  26  78 W14       29.71R WCI  22
NORTH PHILA    LGT SNOW  31  27  85 W13       29.69R FOG     WCI  21
BLUE BELL*       N/A     30  27  86 CALM      29.66R
DOYLESTOWN     CLOUDY    28  26  92 W7        29.64R WCI  21
PERKASIE*      MIX PCPN  28  27  93 W6        29.65R WCI  22
POTTSTOWN      CLOUDY    28  25  88 W8        29.68R WCI  20
LANCASTER      PTCLDY    27  23  85 W10       29.69R WCI  17
COATESVILLE    CLOUDY    27  27 100 W8G15     29.68R WCI  18
READING        CLOUDY    30  22  72 W10       29.67R WCI  21
ALLENTOWN      CLOUDY    30  23  75 W8        29.64R HAZE    WCI  22
MOUNT POCONO   MOCLDY    24  20  84 W12       29.52R WCI  13
HAZLETON       CLOUDY    27  21  80 W8        29.60R WCI  18
LEHIGHTON      CLOUDY    32  23  69 SW3       29.64R
WILKES BARRE   CLOUDY    28  24  85 SW7       29.59R WCI  21

$$
DEZALL-MDZ008-012-015-019-020-101400-
DELAWARE AND EASTERN MARYLAND

CITY           SKY/WX    TMP DP  RH WIND       PRES   REMARKS
WILMINGTON     LGT SNOW  29  26  89 W10       29.73R FOG     WCI  20
DOVER          LGT SNOW  29  29 100 W13       29.73R FOG     WCI  19
GEORGETOWN     LGT SNOW  29  26  89 W10       29.76R FOG     WCI  20
EASTON         CLOUDY    30  25  80 NW9G20    29.81R WCI  22
ABERDEEN       CLOUDY    28  27  93 W7        29.75R WCI  21
PATUXENT       MOCLDY    30  24  78 W10       29.80R WCI  21
OCEAN CITY     LGT SNOW  29  26  89 W13       29.77R FOG     WCI  19
WALLOPS ISLAND LGT SNOW  30  26  85 NW13      29.80R FOG     WCI  20
CAMBRIDGE      PTCLDY    30  23  74 W6        29.78R WCI  24
SALISBURY      LGT SNOW  29  27  92 W9        29.78R FOG     WCI  20

$$
PAZ001-021-NYZ056-072-MDZ011-DCZ001-101400-
OTHER NEARBY LOCATIONS

CITY           SKY/WX    TMP DP  RH WIND       PRES   REMARKS
HARRISBURG     CLOUDY    30  21  69 W13       29.70R WCI  20
STATE COLLEGE  MOCLDY    25  18  74 W17       29.68R WCI  11
WILLIAMSPORT   CLOUDY    29  19  66 W15G25    29.65R WCI  18
BINGHAMTON     CLOUDY    25  18  74 W10       29.52R WCI  15
NEW YORK CITY  CLOUDY    33  28  81 VRB3      29.63S HAZE
BALTIMORE      MOCLDY    30  18  60 W14G21    29.76R WCI  19
WASHINGTON DC  MOCLDY    32  16  51 W15G21    29.80R WCI  22

$$




USA.gov is the U.S. government's official web portal to all federal, state and local government web resources and services.